Hourly Data Report for September 24, 2017

All times are specified in Local Standard Time (LST). Add 1 hour to adjust for Daylight Saving Time where and when it is observed.

KITCHENER/WATERLOO
ONTARIO

43°27'39.000" N
80°22'43.000" W
321.60 m
6144239
71368
YKF

Download Data

Hourly Data (September 2017)
Hourly Data Report for September 24, 2017
Temp Definition
°C
Dew Point Temp Definition
°C
Rel Hum Definition
%
Wind Dir Definition
10's deg

Wind Spd Definition
km/h
Visibility Definition
km
Stn Press Definition
kPa
Hmdx Definition


Wind Chill Definition


Weather Definition


TIME
00:00 Legend Double Dagger 17.2 17.0 99   0 0.8 98.26     Fog
01:00 Legend Double Dagger 16.9 16.7 99 32 4 1.0 98.28     Fog
02:00 Legend Double Dagger 17.2 17.0 99 33 4 1.2 98.29     Fog
03:00 Legend Double Dagger 17.4 17.2 99 30 5 0.6 98.29     Fog
04:00 Legend Double Dagger 17.7 17.5 99 LegendMM 4 2.4 98.32     Fog
05:00 Legend Double Dagger 15.8 15.7 99   0 0.2 98.34     Fog
06:00 Legend Double Dagger 15.0 14.9 99 29 4 0.0 98.39     Fog
07:00 Legend Double Dagger 16.8 16.6 99 30 5 3.2 98.42     Fog
08:00 Legend Double Dagger 19.7 19.5 99 34 5 9.7 98.44     Fog
09:00 Legend Double Dagger 24.6 18.8 70 34 5 16.1 98.43 31   LegendNANA
10:00 Legend Double Dagger 27.9 19.2 58 34 8 9.7 98.41 35   Haze
11:00 Legend Double Dagger 29.7 19.4 53 34 9 16.1 98.40 37   LegendNANA
12:00 Legend Double Dagger 30.6 18.3 47 LegendMM 4 16.1 98.37 37   LegendNANA
13:00 Legend Double Dagger 31.7 18.6 45 21 9 16.1 98.31 38   LegendNANA
14:00 Legend Double Dagger 32.1 17.7 42 20 8 16.1 98.27 38   LegendNANA
15:00 Legend Double Dagger 31.9 17.3 41 34 5 16.1 98.21 37   LegendNANA
16:00 Legend Double Dagger 31.9 17.0 40 LegendMM 5 16.1 98.17 37   LegendNANA
17:00 Legend Double Dagger 30.2 20.4 55 29 5 16.1 98.16 38   LegendNANA
18:00 Legend Double Dagger 27.2 19.7 63 33 5 16.1 98.15 35   LegendNANA
19:00 Legend Double Dagger 22.6 19.8 84   0 16.1 98.17 30   LegendNANA
20:00 Legend Double Dagger 22.2 19.1 82 LegendMM 4 16.1 98.20 29   LegendNANA
21:00 Legend Double Dagger 21.8 18.7 83 19 4 16.1 98.22 28   LegendNANA
22:00 Legend Double Dagger 19.4 18.4 94   0 16.1 98.22     LegendNANA
23:00 Legend Double Dagger 18.5 18.0 97   0 8.1 98.20     Fog

Notes on Data Quality.

Legend

  • E = Estimated
  • M = Missing
  • NA = Not Available
  • ‡ = Partner data that is not subject to review by the National Climate Archives
Date modified: